Jackson, WY

9:54 AM MST on December 07, 2019 (GMT -0700)
Jackson Hole

Weather History for KJAC - October, 2019

Change the Weather History Date:

Thursday, October 3, 2019

  Actual Average Record
Temperature  
Mean Temperature 38 °F -  
Max Temperature 60 °F 62 °F 79 °F (1992)
Min Temperature 17 °F 26 °F 15 °F (1978)
Degree Days  
Heating Degree Days 27    
Moisture  
Dew Point 22 °F    
Average Humidity 63    
Maximum Humidity 92    
Minimum Humidity 24    
Precipitation  
Precipitation 0.00 in - - ()
Sea Level Pressure  
Sea Level Pressure 30.22 in    
Wind  
Wind Speed 4 mph ()    
Max Wind Speed 7 mph    
Max Gust Speed -    
Visibility 9.9 miles    
Events      
Averages and records for this station are not official NWS values.
T = Trace of Precipitation, MM = Missing Value Source: Averaged Metar Reports

Daily Weather History Graph

Daily Weather History Graph

Search for Another Location

Airport or City:

Astronomy

Oct. 03, 2019 Rise Set
Actual Time 7:22 AM MDT 7:00 PM MDT
Civil Twilight 6:54 AM MDT 7:29 PM MDT
Nautical Twilight 6:20 AM MDT 8:02 PM MDT
Astronomical Twilight 5:47 AM MDT 8:35 PM MDT
Moon 1:07 PM MDT (10/3) 10:32 PM MDT (10/3)
Length of Visible Light 12h 35m
Length of Day
11h 37m
Waxing Crescent, 30% of the Moon is Illuminated
Oct 3
Waxing Crescent
Oct 5
First Quarter
Oct 13
Full
Oct 21
Last Quarter
Oct 27
New

Hourly Weather History & Observations

Time (MDT) Temp. Windchill Dew Point Humidity Pressure Visibility Wind Dir Wind Speed Gust Speed Precip Events Conditions
12:56 AM 21.0 °F 12.4 °F 19.0 °F 92% 30.35 in 10.0 mi NNE 6.9 mph - N/A   Clear
1:56 AM 19.9 °F 11.1 °F 18.0 °F 92% 30.36 in 10.0 mi NNE 6.9 mph - N/A   Clear
2:56 AM 19.9 °F 13.4 °F 17.1 °F 89% 30.34 in 10.0 mi North 4.6 mph - N/A   Clear
3:56 AM 19.9 °F - 18.0 °F 92% 30.35 in 10.0 mi Calm Calm - N/A   Clear
4:56 AM 19.9 °F - 17.1 °F 89% 30.34 in 10.0 mi Calm Calm - N/A   Clear
5:56 AM 17.1 °F 11.7 °F 14.0 °F 88% 30.37 in 10.0 mi NNE 3.5 mph - N/A   Clear
6:56 AM 17.1 °F 11.7 °F 15.1 °F 92% 30.37 in 10.0 mi NE 3.5 mph - N/A   Clear
7:56 AM 19.0 °F 13.9 °F 17.1 °F 92% 30.38 in 10.0 mi NNE 3.5 mph - N/A   Clear
8:56 AM 27.0 °F - 21.9 °F 81% 30.38 in 10.0 mi Calm Calm - N/A   Clear
9:56 AM 33.1 °F - 23.0 °F 66% 30.33 in 10.0 mi Calm Calm - N/A   Clear
10:15 AM 33.8 °F - 21.2 °F 60% 30.23 in 10.0 mi Calm Calm - N/A   Clear
10:56 AM 37.0 °F 33.3 °F 21.9 °F 54% 30.32 in 7.0 mi South 4.6 mph - N/A   Clear
11:56 AM 42.1 °F 39.2 °F 23.0 °F 47% 30.27 in 10.0 mi South 4.6 mph - N/A   Clear
12:56 PM 48.0 °F - 24.1 °F 39% 30.21 in 10.0 mi Variable 6.9 mph - N/A   Clear
1:56 PM 53.1 °F - 21.9 °F 30% 30.15 in 10.0 mi SSW 6.9 mph - N/A   Clear
2:56 PM 55.9 °F - 21.9 °F 27% 30.10 in 10.0 mi WSW 6.9 mph - N/A   Clear
3:56 PM 59.0 °F - 23.0 °F 25% 30.06 in 10.0 mi Calm Calm - N/A   Clear
4:56 PM 59.0 °F - 21.9 °F 24% 30.04 in 10.0 mi Variable 4.6 mph - N/A   Clear
5:56 PM 59.0 °F - 21.9 °F 24% 30.05 in 10.0 mi SW 3.5 mph - N/A   Clear
6:56 PM 52.0 °F - 26.1 °F 37% 30.06 in 10.0 mi Calm Calm - N/A   Clear
7:56 PM 44.1 °F 40.8 °F 25.0 °F 47% 30.09 in 10.0 mi NNW 5.8 mph - N/A   Clear
8:56 PM 36.0 °F 30.3 °F 26.1 °F 67% 30.08 in 10.0 mi NNE 6.9 mph - N/A   Clear
9:56 PM 35.1 °F 32.2 °F 28.0 °F 76% 30.07 in 10.0 mi East 3.5 mph - N/A   Clear
10:56 PM 36.0 °F 31.1 °F 27.0 °F 70% 30.05 in 10.0 mi North 5.8 mph - N/A   Clear
11:56 PM 32.0 °F 25.6 °F 27.0 °F 82% 30.05 in 10.0 mi NNE 6.9 mph - N/A   Clear